Regional Weather Roundup
Issued by NWS Albany, NY

Home | Current Version | Previous Version | Text Only | Print | Product List | Glossary On
Versions: 1 2 3 4 5 6 7 8 9 10 11 12 13 14 15 16 17 18 19 20 21 22 23 24 25 26 27 28 29 30 31 32 33 34 35 36 37 38 39 40 41 42 43 44 45 46 47 48
000
ASUS41 KALY 200910
RWRALY

NEW YORK STATE HOURLY WEATHER ROUNDUP
NATIONAL WEATHER SERVICE ALBANY NY
400 AM EST SAT DEC 20 2014

NOTE: "FAIR" INDICATES FEW OR NO CLOUDS BELOW 12,000 FEET WITH NO
SIGNIFICANT WEATHER AND/OR NO OBSTRUCTIONS TO VISIBILITY.

NYZ032-033-038>043-046>054-057>066-NYZ062>081-201000-
EAST


CITY           SKY/WX    TMP DP  RH WIND       PRES   REMARKS
ALBANY         CLOUDY    26  17  68 N8        30.24F WCI  18
GLENS FALLS    CLOUDY    21  16  81 N5        30.24S WCI  15
POUGHKEEPSIE   CLOUDY    29  19  66 N8        30.22R WCI  21
NEWBURGH       CLOUDY    28  23  80 VRB6      30.20R WCI  22
MONTGOMERY     CLOUDY    28  22  78 N3        30.20R
WHITE PLAINS   MOCLDY    28  19  69 N6        30.19R WCI  22
ISLIP          CLOUDY    32  21  64 N8        30.19R WCI  25
NEW YORK CITY  CLOUDY    31  21  66 N8        30.22R WCI  23
CENTRAL PARK   CLOUDY    31  19  61 NE7       30.24R WCI  24
$$

NYZ005>009-017-018-044>046-055-056-201000-
CENTRAL


CITY           SKY/WX    TMP DP  RH WIND       PRES   REMARKS
FULTON         CLOUDY    25  17  72 E3        30.22F
SYRACUSE       CLOUDY    25  21  85 NE6       30.22F WCI  18
ROME           CLOUDY    20  17  88 CALM      30.24F
ELMIRA         CLOUDY    29  21  72 N3        30.20R
BINGHAMTON     CLOUDY    24  21  88 N7        30.13S WCI  16
MONTICELLO     CLOUDY    23  19  86 N7        30.15R WCI  15
$$

NYZ026>034-041>043-201000-
NORTH


CITY           SKY/WX    TMP DP  RH WIND       PRES   REMARKS
WATERTOWN      CLEAR     15   9  76 E3        30.25F
FORT DRUM      NOT AVBL
MASSENA        PTCLDY     5   1  83 CALM      30.29S
SARANAC LAKE   CLOUDY    13 N/A N/A CALM      30.14S
PLATTSBURGH    CLEAR      9   5  84 CALM      30.27S
$$

NYZ001>004-010>016-019>021-201000-
WEST


CITY           SKY/WX    TMP DP  RH WIND       PRES   REMARKS
BUFFALO        MOCLDY    25  21  85 W6        30.24R WCI  18
DUNKIRK        CLOUDY    29  22  75 SW6       30.26R WCI  23
JAMESTOWN      CLOUDY    23  18  80 W3        30.19S
WELLSVILLE     CLOUDY    23  20  88 NW5       30.16R WCI  17
ROCHESTER      CLOUDY    28  21  75 NW5       30.22F WCI  23
PENN YAN       CLOUDY    27  20  75 N5        30.20S WCI  22
$$

             KEY
       WCI = WIND CHILL INDEX
       VSB = VISIBILITY
       HX  = HEAT INDEX
$$


USA.gov is the U.S. government's official web portal to all federal, state and local government web resources and services.